Regional Weather Roundup
Issued by NWS

Home | Current Version | Previous Version | Graphics & Text | Print | Product List | Glossary On
Versions: 1 2 3 4 5 6 7 8 9 10 11 12 13 14 15 16 17 18 19 20 21 22 23 24 25 26 27 28 29 30 31 32 33 34 35 36 37 38 39 40 41 42 43 44 45 46 47 48 49 50
179
ASUS43 KIND 271859
RWRIN

WEATHER ROUNDUP FOR INDIANA
NATIONAL WEATHER SERVICE INDIANAPOLIS IN
300 PM EDT SAT MAY 27 2017

NOTE: "FAIR" INDICATES FEW OR NO CLOUDS BELOW 12,000 FEET WITH NO
SIGNIFICANT WEATHER AND/OR OBSTRUCTIONS TO VISIBILITY.

* - STATION DOES NOT REPORT WEATHER SUCH AS PRECIPITATION OR FOG.

+ - STATION NOT QUALITY CONTROLLED BY THE NATIONAL WEATHER SERVICE.
    USE DATA WITH CAUTION...ESPECIALLY DEWPOINT AND RELATIVE
    HUMIDITY OBSERVATIONS.

INZ001>003-010>013-019-020-272000-
NORTHWEST INDIANA

CITY           SKY/WX    TMP DP  RH WIND       PRES   REMARKS
GARY /AIRPORT/ PTSUNNY   66  57  72 N6        29.92S
MICHIGAN CITY+ CLOUDY    68  61  77 NW8       29.92R
MONTICELLO +   CLOUDY    68  61  79 CALM      29.91S
RENSSELAER +   CLOUDY    72  61  68 CALM      29.90F

$$

LMZ046-743>745-272000-
SOUTHERN LAKE MICHIGAN

STATION/POSITION TIME  TEMP    WIND        PRES    WAVE
                       AIR SEA DIR/SP/G            HT
                 (UTC) (F)     (DEG/KT/KT) (MB)    (FT)
BURNS HARBOR     1840   55     320/  5/  6 1013.9S
MICHIGAN CITY    1830   57     270/  6/  6   N/A
5NW MICH CITY    1850   52 56  310/  8/ 10   N/A     1

$$

INZ004-005-014>016-021>024-272000-
NORTH CENTRAL INDIANA

CITY           SKY/WX    TMP DP  RH WIND       PRES   REMARKS
GOSHEN         CLOUDY    72  60  66 E5        29.89F
SOUTH BEND     CLOUDY    72  62  71 VRB3      29.90S

$$

INZ006>009-017-018-025>027-272000-
NORTHEAST INDIANA

CITY           SKY/WX    TMP DP  RH WIND       PRES   REMARKS
ANGOLA *+      CLOUDY    70  61  73 SE6       29.90S
FORT WAYNE     CLOUDY    72  62  71 VRB5      29.89F
KENDALLVILLE + CLOUDY    71  61  71 SE5       29.90F

$$

INZ028-029-035-036-043>045-051>053-272000-
WEST CENTRAL INDIANA

CITY           SKY/WX    TMP DP  RH WIND       PRES   REMARKS
CRAWFORDSVL +  CLOUDY   -23 -27  82 N3        29.90F
GREENCASTLE +  MOSUNNY   75  61  60 W5        29.89F
LAFAYETTE      CLOUDY    69  63  81 CALM      29.89F
TERRE HAUTE    SUNNY     78  63  59 NW5       29.88F

$$

INZ030>032-037>040-046>048-054>057-064-065-272000-
CENTRAL INDIANA

CITY           SKY/WX    TMP DP  RH WIND       PRES   REMARKS
ANDERSON       PTSUNNY  N/A N/A N/A NW12      29.90S
COLUMBUS       PTSUNNY   82  61  47 W7        29.86F
GREENWOOD *+   SUNNY     78  64  63 W6        29.88F
INDIANAPOLIS   MOSUNNY   76  63  64 W6        29.88S
-EAGLE CREEK   MOSUNNY   76  62  62 N8        29.88F
KOKOMO +       CLOUDY    71  63  75 CALM      29.91F
SHELBYVILLE    MOSUNNY   81  65  58 W8        29.86F

$$

INZ033-034-041-042-049-050-058-059-272000-
EAST CENTRAL INDIANA

CITY           SKY/WX    TMP DP  RH WIND       PRES   REMARKS
MUNCIE         CLOUDY    75  63  66 NW5       29.88F
RICHMOND +     MOSUNNY   77  64  65 W6        29.89F

$$

INZ060-061-067>069-081>083-085>088-272000-
SOUTHWEST INDIANA

CITY           SKY/WX    TMP DP  RH WIND       PRES   REMARKS
EVANSVILLE     MOSUNNY   87  71  58 SW9       29.86F
HUNTINGBURG *+ MOSUNNY   84  72  67 W12G18    29.86F

$$

INZ062-063-066-070>080-084-089>092-272000-
SOUTH CENTRAL AND SOUTHEAST INDIANA

CITY           SKY/WX    TMP DP  RH WIND       PRES   REMARKS
BLOOMINGTON    MOSUNNY   81  63  54 W6        29.87F
MADISON *+     PTSUNNY   81  66  61 W3        29.89F
SEYMOUR +      PTSUNNY   82  66  57 W6        29.86F

$$





USA.gov is the U.S. government's official web portal to all federal, state and local government web resources and services.